Location: Cercedilla
(40.7379°N, 4.0638°W)
Time: 17:27:02
(UTC+00:00)

Cosmos 1356 Rocket - Pass Details

Date: 07 June 2020
Orbit: 543 x 598 km, 81.2° (Epoch: 13 July)

Event Time Altitude Azimuth Distance (km) Brightness Sun altitude
Rises 00:08:18 0° 351° (N) 2,818 8.2 -26.5°
Reaches altitude 10° 00:10:30 10° 352° (N) 1,921 7.1 -26.5°
Enters shadow 00:13:59 59° 5° (N) 690 4.0 -26.5°
